Powrót do katalogu

STARLINK-38097

AktywnyŁącznośćSSO
NORAD 100163·PAYLOAD·🇺🇸 United States

Wystrzelony Jul 25, 2026 z Vandenberg Space Force Base

Loading…

Następne Przeloty (najbliższe 24 godziny)

TLE

ŚwieżeSource: Space-Track

Epoka: Sep 14, 2026, 21:45 UTC

1 A0163U 26171R   26257.90660212  .00019111  00000-0  52980-3 0  9995
2 A0163  97.2835 290.5010 0001005  93.3346 266.8014 15.36985051  8049

Śledź STARLINK-38097 w czasie rzeczywistym z AllMySat

Download on the App Store